Time,TemperatureF,DewpointF,PressureIn,WindDirection,WindDirectionDegrees,WindSpeedMPH,WindSpeedGustMPH,Humidity,HourlyPrecipIn,Conditions,Clouds,dailyrainin,SoftwareType,DateUTC
2017-06-25 00:03:00,81.5,75.5,30.09,SE,146,0.0,0.0,82,0.00,,,0.00,Wunderground v.1.15,2017-06-25 04:03:00,
2017-06-25 00:09:00,81.4,75.4,30.09,SSE,156,0.0,1.0,82,0.00,,,0.00,Wunderground v.1.15,2017-06-25 04:09:00,
2017-06-25 00:14:00,81.4,75.4,30.09,SE,134,1.0,2.0,82,0.00,,,0.00,Wunderground v.1.15,2017-06-25 04:14:00,
2017-06-25 00:20:00,81.4,75.4,30.09,ESE,114,0.0,0.0,82,0.00,,,0.00,Wunderground v.1.15,2017-06-25 04:20:00,
2017-06-25 00:25:00,81.4,75.4,30.09,ESE,110,0.0,0.0,82,0.00,,,0.00,Wunderground v.1.15,2017-06-25 04:25:00,
2017-06-25 00:31:00,81.4,75.4,30.09,ESE,103,0.0,0.0,82,0.00,,,0.00,Wunderground v.1.15,2017-06-25 04:31:00,
2017-06-25 00:36:00,81.4,75.4,30.09,SSE,155,0.0,0.0,82,0.00,,,0.00,Wunderground v.1.15,2017-06-25 04:36:00,
2017-06-25 00:41:00,81.3,75.3,30.09,SE,138,0.0,0.0,82,0.00,,,0.00,Wunderground v.1.15,2017-06-25 04:41:00,
2017-06-25 00:47:00,81.2,75.5,30.09,ESE,113,1.0,1.0,83,0.00,,,0.00,Wunderground v.1.15,2017-06-25 04:47:00,
2017-06-25 00:52:00,81.2,75.5,30.09,East,99,0.0,1.0,83,0.00,,,0.00,Wunderground v.1.15,2017-06-25 04:52:00,
2017-06-25 00:58:00,81.2,75.5,30.09,SE,138,0.0,1.0,83,0.00,,,0.00,Wunderground v.1.15,2017-06-25 04:58:00,
2017-06-25 01:03:00,81.2,75.5,30.09,ESE,121,0.0,0.0,83,0.00,,,0.00,Wunderground v.1.15,2017-06-25 05:03:00,
2017-06-25 01:08:00,81.2,75.5,30.08,ESE,120,0.0,0.0,83,0.00,,,0.00,Wunderground v.1.15,2017-06-25 05:08:00,
2017-06-25 01:14:00,81.1,75.4,30.08,SSE,148,0.0,0.0,83,0.00,,,0.00,Wunderground v.1.15,2017-06-25 05:14:00,
2017-06-25 01:20:00,81.0,75.3,30.08,ESE,121,0.0,0.0,83,0.00,,,0.00,Wunderground v.1.15,2017-06-25 05:20:00,
2017-06-25 01:26:00,80.9,75.2,30.08,SE,135,0.0,0.0,83,0.00,,,0.00,Wunderground v.1.15,2017-06-25 05:26:00,
2017-06-25 01:32:00,80.8,75.2,30.08,SE,140,0.0,1.0,83,0.00,,,0.00,Wunderground v.1.15,2017-06-25 05:32:00,
2017-06-25 01:37:00,81.0,75.3,30.08,ESE,112,0.0,1.0,83,0.00,,,0.00,Wunderground v.1.15,2017-06-25 05:37:00,
2017-06-25 01:43:00,81.0,75.3,30.07,SE,126,0.0,0.0,83,0.00,,,0.00,Wunderground v.1.15,2017-06-25 05:43:00,
2017-06-25 01:48:00,80.8,75.5,30.07,ESE,119,0.0,1.0,84,0.00,,,0.00,Wunderground v.1.15,2017-06-25 05:48:00,
2017-06-25 01:54:00,80.7,75.4,30.07,SE,124,0.0,0.0,84,0.00,,,0.00,Wunderground v.1.15,2017-06-25 05:54:00,
2017-06-25 01:59:00,80.7,75.4,30.07,SE,127,0.0,1.0,84,0.00,,,0.00,Wunderground v.1.15,2017-06-25 05:59:00,
2017-06-25 02:04:00,80.7,75.4,30.07,East,90,0.0,0.0,84,0.00,,,0.00,Wunderground v.1.15,2017-06-25 06:04:00,
2017-06-25 02:10:00,80.6,75.3,30.07,SE,139,0.0,0.0,84,0.00,,,0.00,Wunderground v.1.15,2017-06-25 06:10:00,
2017-06-25 02:15:00,80.6,75.3,30.07,SE,124,0.0,1.0,84,0.00,,,0.00,Wunderground v.1.15,2017-06-25 06:15:00,
2017-06-25 02:21:00,80.6,75.3,30.06,SE,135,0.0,0.0,84,0.00,,,0.00,Wunderground v.1.15,2017-06-25 06:21:00,
2017-06-25 02:27:00,80.4,75.1,30.06,SSE,148,0.0,0.0,84,0.00,,,0.00,Wunderground v.1.15,2017-06-25 06:27:00,
2017-06-25 02:32:00,80.3,75.0,30.06,SE,136,0.0,0.0,84,0.00,,,0.00,Wunderground v.1.15,2017-06-25 06:32:00,
2017-06-25 02:37:00,80.3,75.0,30.06,SE,127,0.0,0.0,84,0.00,,,0.00,Wunderground v.1.15,2017-06-25 06:37:00,
2017-06-25 02:39:00,80.3,75.0,30.06,SE,130,0.0,0.0,84,0.00,,,0.00,Wunderground v.1.15,2017-06-25 06:39:00,
2017-06-25 02:44:00,80.2,74.9,30.06,SE,126,0.0,0.0,84,0.00,,,0.00,Wunderground v.1.15,2017-06-25 06:44:00,
2017-06-25 02:50:00,80.1,74.8,30.06,SE,135,0.0,0.0,84,0.00,,,0.00,Wunderground v.1.15,2017-06-25 06:50:00,
2017-06-25 02:56:00,80.1,74.8,30.06,SE,134,0.0,0.0,84,0.00,,,0.00,Wunderground v.1.15,2017-06-25 06:56:00,
2017-06-25 03:01:00,80.1,74.8,30.06,SE,130,0.0,0.0,84,0.00,,,0.00,Wunderground v.1.15,2017-06-25 07:01:00,
2017-06-25 03:07:00,80.0,74.7,30.06,ESE,115,0.0,1.0,84,0.00,,,0.00,Wunderground v.1.15,2017-06-25 07:07:00,
2017-06-25 03:12:00,79.9,74.6,30.06,SE,142,0.0,0.0,84,0.00,,,0.00,Wunderground v.1.15,2017-06-25 07:12:00,
2017-06-25 03:17:00,79.9,74.6,30.06,SSE,159,0.0,1.0,84,0.00,,,0.00,Wunderground v.1.15,2017-06-25 07:17:00,
2017-06-25 03:23:00,79.9,74.6,30.06,SE,138,0.0,1.0,84,0.00,,,0.00,Wunderground v.1.15,2017-06-25 07:23:00,
2017-06-25 03:28:00,79.7,74.4,30.06,SE,138,0.0,1.0,84,0.00,,,0.00,Wunderground v.1.15,2017-06-25 07:28:00,
2017-06-25 03:34:00,79.7,74.4,30.06,SE,138,0.0,0.0,84,0.00,,,0.00,Wunderground v.1.15,2017-06-25 07:34:00,
2017-06-25 03:40:00,79.6,74.7,30.06,SE,138,0.0,0.0,85,0.00,,,0.00,Wunderground v.1.15,2017-06-25 07:40:00,
2017-06-25 03:45:00,79.5,74.6,30.06,SE,144,0.0,1.0,85,0.00,,,0.00,Wunderground v.1.15,2017-06-25 07:45:00,
2017-06-25 03:51:00,79.4,74.5,30.06,SE,144,0.0,0.0,85,0.00,,,0.00,Wunderground v.1.15,2017-06-25 07:51:00,
2017-06-25 03:56:00,79.4,74.5,30.06,SE,144,0.0,0.0,85,0.00,,,0.00,Wunderground v.1.15,2017-06-25 07:56:00,
2017-06-25 04:01:00,79.2,74.3,30.06,SE,144,0.0,0.0,85,0.00,,,0.00,Wunderground v.1.15,2017-06-25 08:01:00,
2017-06-25 04:06:00,79.2,74.3,30.06,SE,144,0.0,0.0,85,0.00,,,0.00,Wunderground v.1.15,2017-06-25 08:06:00,
2017-06-25 04:12:00,79.3,74.4,30.06,SE,142,0.0,0.0,85,0.00,,,0.00,Wunderground v.1.15,2017-06-25 08:12:00,
2017-06-25 04:17:00,79.3,74.4,30.06,SE,144,0.0,0.0,85,0.00,,,0.00,Wunderground v.1.15,2017-06-25 08:17:00,
2017-06-25 04:23:00,79.1,74.2,30.06,SE,144,0.0,0.0,85,0.00,,,0.00,Wunderground v.1.15,2017-06-25 08:23:00,
2017-06-25 04:28:00,79.0,74.1,30.06,SE,143,0.0,0.0,85,0.00,,,0.00,Wunderground v.1.15,2017-06-25 08:28:00,
2017-06-25 04:33:00,78.9,74.4,30.06,SE,143,0.0,0.0,86,0.00,,,0.00,Wunderground v.1.15,2017-06-25 08:33:00,
2017-06-25 04:39:00,78.7,74.2,30.06,SE,144,0.0,0.0,86,0.00,,,0.00,Wunderground v.1.15,2017-06-25 08:39:00,
2017-06-25 04:44:00,78.4,73.9,30.06,SE,144,0.0,0.0,86,0.00,,,0.00,Wunderground v.1.15,2017-06-25 08:44:00,
2017-06-25 04:50:00,78.4,73.9,30.06,SE,144,0.0,0.0,86,0.00,,,0.00,Wunderground v.1.15,2017-06-25 08:50:00,
2017-06-25 04:55:00,78.4,73.9,30.06,SE,144,0.0,0.0,86,0.00,,,0.00,Wunderground v.1.15,2017-06-25 08:55:00,
2017-06-25 05:00:00,78.3,73.8,30.06,SE,144,0.0,0.0,86,0.00,,,0.00,Wunderground v.1.15,2017-06-25 09:00:00,
2017-06-25 05:06:00,78.3,73.8,30.06,SE,144,0.0,0.0,86,0.00,,,0.00,Wunderground v.1.15,2017-06-25 09:06:00,
2017-06-25 05:12:00,78.2,73.7,30.06,SE,143,0.0,0.0,86,0.00,,,0.00,Wunderground v.1.15,2017-06-25 09:12:00,
2017-06-25 05:17:00,78.1,73.9,30.06,SE,144,0.0,0.0,87,0.00,,,0.00,Wunderground v.1.15,2017-06-25 09:17:00,
2017-06-25 05:22:00,78.1,73.9,30.06,SE,144,0.0,0.0,87,0.00,,,0.00,Wunderground v.1.15,2017-06-25 09:22:00,
2017-06-25 05:28:00,78.0,73.8,30.06,SE,144,0.0,0.0,87,0.00,,,0.00,Wunderground v.1.15,2017-06-25 09:28:00,
2017-06-25 05:33:00,77.9,73.7,30.07,SE,144,0.0,0.0,87,0.00,,,0.00,Wunderground v.1.15,2017-06-25 09:33:00,
2017-06-25 05:39:00,78.0,73.8,30.07,SE,144,0.0,0.0,87,0.00,,,0.00,Wunderground v.1.15,2017-06-25 09:39:00,
2017-06-25 05:45:00,78.0,73.8,30.07,SE,144,0.0,0.0,87,0.00,,,0.00,Wunderground v.1.15,2017-06-25 09:45:00,
2017-06-25 05:51:00,77.9,73.7,30.07,SE,144,0.0,0.0,87,0.00,,,0.00,Wunderground v.1.15,2017-06-25 09:51:00,
2017-06-25 05:56:00,77.9,73.7,30.07,SE,144,0.0,0.0,87,0.00,,,0.00,Wunderground v.1.15,2017-06-25 09:56:00,
2017-06-25 06:02:00,78.0,73.8,30.07,SE,144,0.0,0.0,87,0.00,,,0.00,Wunderground v.1.15,2017-06-25 10:02:00,
2017-06-25 06:07:00,78.0,73.8,30.07,SE,144,0.0,0.0,87,0.00,,,0.00,Wunderground v.1.15,2017-06-25 10:07:00,
2017-06-25 06:12:00,78.0,73.8,30.07,SE,144,0.0,0.0,87,0.00,,,0.00,Wunderground v.1.15,2017-06-25 10:12:00,
2017-06-25 06:17:00,78.1,73.9,30.08,SE,144,0.0,0.0,87,0.00,,,0.00,Wunderground v.1.15,2017-06-25 10:17:00,
2017-06-25 06:23:00,78.1,73.9,30.07,SE,144,0.0,0.0,87,0.00,,,0.00,Wunderground v.1.15,2017-06-25 10:23:00,
2017-06-25 06:28:00,78.1,73.9,30.08,SE,142,0.0,0.0,87,0.00,,,0.00,Wunderground v.1.15,2017-06-25 10:28:00,
2017-06-25 06:33:00,78.1,73.9,30.08,SE,144,0.0,0.0,87,0.00,,,0.00,Wunderground v.1.15,2017-06-25 10:33:00,
2017-06-25 06:38:00,78.0,73.8,30.08,SE,144,0.0,0.0,87,0.00,,,0.00,Wunderground v.1.15,2017-06-25 10:38:00,
2017-06-25 06:44:00,78.1,73.9,30.08,WSW,244,0.0,0.0,87,0.00,,,0.00,Wunderground v.1.15,2017-06-25 10:44:00,
2017-06-25 06:47:00,78.3,74.1,30.08,WSW,254,0.0,0.0,87,0.00,,,0.00,Wunderground v.1.15,2017-06-25 10:47:00,
2017-06-25 06:52:00,78.4,74.2,30.08,SSE,165,0.0,1.0,87,0.00,,,0.00,Wunderground v.1.15,2017-06-25 10:52:00,
2017-06-25 06:58:00,78.4,74.2,30.08,SSE,165,0.0,1.0,87,0.00,,,0.00,Wunderground v.1.15,2017-06-25 10:58:00,
2017-06-25 07:04:00,78.4,74.2,30.08,South,173,0.0,0.0,87,0.00,,,0.00,Wunderground v.1.15,2017-06-25 11:04:00,
2017-06-25 07:09:00,78.8,74.6,30.08,SW,225,0.0,0.0,87,0.00,,,0.00,Wunderground v.1.15,2017-06-25 11:09:00,
2017-06-25 07:14:00,79.2,74.6,30.08,SW,225,0.0,0.0,86,0.00,,,0.00,Wunderground v.1.15,2017-06-25 11:14:00,
2017-06-25 07:19:00,79.4,74.8,30.08,SW,225,0.0,0.0,86,0.00,,,0.00,Wunderground v.1.15,2017-06-25 11:19:00,
2017-06-25 07:25:00,79.3,74.7,30.08,SW,225,0.0,0.0,86,0.00,,,0.00,Wunderground v.1.15,2017-06-25 11:25:00,
2017-06-25 07:30:00,79.4,74.8,30.09,SW,224,0.0,0.0,86,0.00,,,0.00,Wunderground v.1.15,2017-06-25 11:30:00,
2017-06-25 07:36:00,79.7,75.1,30.09,SW,225,0.0,0.0,86,0.00,,,0.00,Wunderground v.1.15,2017-06-25 11:36:00,
2017-06-25 07:41:00,80.9,76.3,30.09,SW,225,0.0,0.0,86,0.00,,,0.00,Wunderground v.1.15,2017-06-25 11:41:00,
2017-06-25 07:47:00,82.7,77.4,30.09,SW,225,0.0,0.0,84,0.00,,,0.00,Wunderground v.1.15,2017-06-25 11:47:00,
2017-06-25 07:53:00,84.1,78.0,30.09,SE,141,0.0,0.0,82,0.00,,,0.00,Wunderground v.1.15,2017-06-25 11:53:00,
2017-06-25 07:58:00,84.5,78.0,30.10,ESE,114,0.0,1.0,81,0.00,,,0.00,Wunderground v.1.15,2017-06-25 11:58:00,
2017-06-25 08:04:00,84.5,77.6,30.09,SSE,155,1.0,1.0,80,0.00,,,0.00,Wunderground v.1.15,2017-06-25 12:04:00,
2017-06-25 08:05:00,84.6,77.7,30.09,SE,143,1.0,1.0,80,0.00,,,0.00,Wunderground v.1.15,2017-06-25 12:05:00,
2017-06-25 08:10:00,85.0,78.1,30.09,ENE,69,0.0,0.0,80,0.00,,,0.00,Wunderground v.1.15,2017-06-25 12:10:00,
2017-06-25 08:16:00,85.2,78.3,30.09,ESE,112,0.0,1.0,80,0.00,,,0.00,Wunderground v.1.15,2017-06-25 12:16:00,
2017-06-25 08:21:00,85.4,78.1,30.10,SE,125,1.0,2.0,79,0.00,,,0.00,Wunderground v.1.15,2017-06-25 12:21:00,
2017-06-25 08:27:00,85.1,77.8,30.09,SE,135,2.0,4.0,79,0.00,,,0.00,Wunderground v.1.15,2017-06-25 12:27:00,
2017-06-25 08:32:00,85.3,78.0,30.09,ESE,123,2.0,2.0,79,0.00,,,0.00,Wunderground v.1.15,2017-06-25 12:32:00,